Simultaneous Nadir Overpasses (SNOs) Predictions

Prediction of SNOs between AQUA and NOAA-19 Satellite Orbit:

Table of predicted SNOs for the next 14.0 days since TLE Epoch: 3/16/2017
Index Date (AQUA) Time (AQUA) Lat,Lon (AQUA) SZA (AQUA ) Date (NOAA-19) Time (NOAA-19) Lat,Lon (NOAA-19) SZA (NOAA-19 ) Distance(km) Time Diff (sec)
1 03/18/2017 15:09:19 -80.95, 92.26 96.01 03/18/2017 15:09:23 -80.96, 92.14 95.99 2.11 4
2 03/20/2017 20:43:06 80.96,-171.29 83.12 03/20/2017 20:43:21 80.96,-171.43 83.13 2.54 15
3 03/23/2017 01:27:26 80.96, 117.67 82.23 03/23/2017 01:26:13 80.96, 117.67 82.27 0.37 73
4 03/23/2017 02:16:53 -80.96, -74.75 97.78 03/23/2017 02:17:08 -80.96, -74.68 97.79 1.21 15
5 03/25/2017 07:01:13 -80.96,-145.80 98.66 03/25/2017 07:00:01 -80.96,-145.88 98.62 1.34 72
6 03/25/2017 07:50:39 80.95, 21.93 81.32 03/25/2017 07:51:05 80.96, 21.86 81.32 1.41 26
7 03/27/2017 12:34:59 80.95, -49.18 80.45 03/27/2017 12:33:57 80.96, -49.12 80.48 1.20 62
8 03/27/2017 13:24:26 -80.95, 118.44 99.57 03/27/2017 13:24:53 -80.96, 118.41 99.57 0.55 27
9 03/29/2017 18:08:46 -80.96, 47.31 100.43 03/29/2017 18:07:46 -80.96, 47.18 100.38 2.31 60




NCC Satellite Simultaneous Nadir Overpasses (SNOs) Prediction Service
